Home > Time Zones > World Clock > Weather > Italy > Parma > Past weeks

Flag for Italy Weather past 2 weeks in Parma, Italy

Now
64 °F

Scattered clouds.


Feels Like: 64 °F
Forecast: 47 / 60 °F
Wind: 3 mph from North

Location: Parma

Current Time: Apr 18, 2015 at 1:47:35 PM

Latest Report: Apr 18, 2015 at 12:50 PM


Visibility: N/A

Pressure: 29.92 "Hg

Humidity: 68%

Dew point: 54 °F

Location of ParmaLocation

Historic Weather in Parma — Graph

°F

Parma temperature yesterday

Maximum temperature yesterday: 64 °F (at 12:50 PM)
Minimum temperature yesterday: 55 °F (at 7:50 AM)
Average temperature yesterday: 60 °F

Past Weeks' High & Low Weather Summary

 TemperatureHumidityPressure
High77 °F (Apr 13, 4:50 PM)94% (Apr 15, 7:50 AM)30.45 "Hg (Apr 15, 7:50 AM)
Low34 °F (Apr 6, 7:00 AM)18% (Apr 7, 5:50 PM)29.77 "Hg (Apr 4, 5:50 PM)
Average58 °F56%30.17 "Hg
* Reported Apr 3 12:50 PM — Apr 18 12:50 PM, Parma, Weather by CustomWeather, © 2015

Note: Actual official high and low records may vary slightly from our data, if they occured in-between our weather recording intervals... More about our weather records

Advertising

Parma weather history for previous 24 hours

 ConditionsComfort  
Time TempWeatherWind HumidityBarometerVisibility
12:50 PM
Sat, Apr 18
64 °FScattered clouds.3 mph68%29.92 "HgN/A
11:50 AM63 °FScattered clouds.2 mph73%29.92 "Hg5 mi
10:50 AM61 °FPassing clouds.5 mph77%29.92 "Hg5 mi
9:50 AM59 °FPartly sunny.3 mph82%29.92 "Hg5 mi
8:50 AM57 °FPartly sunny.2 mph88%29.92 "HgN/A
7:50 AM54 °FPartly sunny.1 mph94%29.92 "HgN/A
7:00 AM52 °FPassing clouds.1 mph94%29.89 "HgN/A
10:50 PM
Fri, Apr 17
55 °FPassing clouds.3 mph88%29.95 "HgN/A
9:50 PM57 °FPassing clouds.5 mph82%29.95 "HgN/A
8:50 PM57 °FBroken clouds.5 mph88%29.95 "HgN/A
7:50 PM59 °FPartly sunny.6 mph77%29.92 "HgN/A
6:50 PM61 °FPartly sunny.6 mph72%29.92 "HgN/A
5:50 PM63 °FBroken clouds.6 mph68%29.95 "HgN/A
4:50 PM63 °FBroken clouds.7 mph68%29.95 "HgN/A
3:50 PM63 °FBroken clouds.9 mph73%29.98 "HgN/A
2:50 PM63 °FScattered clouds.6 mph73%29.98 "HgN/A
1:50 PM64 °FScattered clouds.3 mph73%29.98 "HgN/A
Weather by CustomWeather, © 2015

See weather overviewHow to use our weather pages